Location: Wapato
(46.4478°N, 120.4212°W)
Time: 00:59:58
(UTC+00:00)

S-56A Canister/Altair - Visible Passes

Search period start: 14 May 2026 00:00
Search period end: 24 May 2026 00:00
Orbit: 633 x 2484 km, 38.9° (Epoch: 13 May)

Date Brightness Start Highest point End Pass type
(mag) Time Alt. Az. Time Alt. Az. Time Alt. Az.
14 May 8.3 04:56:05 10° SSW 04:59:30 22° SSE 05:00:13 21° SE visible
14 May 9.9 11:09:10 12° SSW 11:09:10 12° SSW 11:11:39 10° S visible
15 May 8.5 04:21:37 10° SSW 04:24:50 19° SSE 04:27:43 11° ESE visible
15 May 8.8 06:23:25 10° WSW 06:25:00 20° SW 06:25:00 20° SW visible
16 May 7.9 05:48:48 10° WSW 05:52:18 32° S 05:52:18 32° S visible
17 May 7.9 05:14:08 10° SW 05:18:05 31° S 05:19:27 26° SE visible
18 May 8.0 04:39:25 10° SW 04:43:24 29° S 04:46:30 14° ESE visible
18 May 8.9 06:42:15 10° WSW 06:43:46 19° SW 06:43:46 19° SW visible
19 May 8.2 04:04:40 10° SW 04:08:42 28° S 04:12:30 10° ESE visible
19 May 8.1 06:07:32 10° WSW 06:10:44 29° SSW 06:10:44 29° SSW visible
20 May 7.9 05:32:47 10° WSW 05:36:46 31° S 05:37:39 29° SSE visible
21 May 7.9 04:57:58 10° WSW 05:02:04 32° S 05:04:32 19° SE visible
21 May 9.5 07:01:34 10° WSW 07:01:46 11° WSW 07:01:46 11° WSW visible
22 May 8.0 04:23:04 10° WSW 04:27:22 33° S 04:31:23 10° ESE visible
22 May 8.9 06:26:43 10° WSW 06:28:37 18° SW 06:28:37 18° SW visible
23 May 8.4 05:51:50 10° WSW 05:55:24 23° SSW 05:55:27 23° SSW visible
